Vertical_Velocity
-7 -3 -14 -0 14 14 -13 1 22 13 -4 9 10 -5 1 2 -2 -1 2 2 -2 2 -4 -2 -0 -4 -5 -2 1 6 -1 -2 2 -0 -2 3 -1 2 0 1 1 -1 -3 -0 -2 -2 -3 -1 -5 1 1 -0 -1 -1
22 21 13 4 10 2 13 14 3 3 1 3 3 3 0 -1 2 4 -0 7 0 -4 0 3 2 1 -0 -8 3 1 -2 -1 -4 -5 2 2 -1 2 1 1 -3 -1 -3 -1 -0 -0 -5 -5 -2 0 0 -0 -1 -1
-1 5 7 8 7 9 8 6 -6 4 2 0 3 1 0 0 2 10 10 2 3 1 3 -1 -6 -4 -2 0 3 -3 -1 -0 -0 2 2 -0 -2 0 1 2 1 -0 0 1 -3 -1 -5 -3 -0 -0 0 0 -0 -0
-2 4 -2 2 2 -1 -2 -0 1 0 0 2 1 0 1 1 0 14 7 1 1 5 3 0 0 -4 0 1 -0 2 2 0 -1 -0 0 1 -0 1 2 -1 1 2 -1 -1 3 -3 0 0 0 -0 -0 1 1 1
2 -2 -6 -3 -0 -2 -1 -1 1 1 -2 -3 -1 1 1 -1 2 6 -1 1 -2 1 1 0 6 0 0 0 -0 -0 0 -0 0 -1 -0 -1 -0 -2 1 2 5 -3 0 -2 1 1 -1 1 0 -1 -0 1 1 1
3 3 3 4 2 -2 -1 -2 -5 -3 2 3 3 1 -0 1 -2 -4 1 -1 -0 38 5 -7 6 0 2 1 -0 0 1 0 -0 1 -1 1 3 -2 -2 1 4 1 1 -1 -1 -3 -2 -1 -0 -1 -1 -1 -0 -2
2 3 3 2 0 1 1 3 3 12 3 3 -4 -4 0 6 4 -0 15 21 24 -3 2 12 5 6 2 2 1 -0 -1 0 0 -1 -0 2 2 -3 2 3 2 -0 1 1 -1 -3 -0 -3 -1 -1 1 1 -1 -2
7 6 7 7 3 1 -0 1 1 3 6 6 5 7 5 2 5 -1 -7 9 -5 6 5 1 4 1 2 5 3 2 -1 -2 1 1 3 3 -2 -0 3 3 -1 -1 -2 -3 -1 -1 -1 -1 -1 -2 -1 -2 -1 -0
-1 -2 2 1 6 6 0 0 -2 2 -2 -2 0 2 6 11 2 1 8 5 4 2 1 1 1 3 -2 1 1 -2 1 -1 1 1 2 -3 6 1 2 -3 -1 0 -0 -2 1 0 0 -1 -1 -1 -1 0 0 -0
-2 2 2 3 12 0 3 1 12 0 2 1 -1 -5 -4 -3 -5 -3 -1 -2 -2 2 -1 -4 -3 -3 3 1 1 1 1 -4 -1 1 -2 2 7 0 -0 -2 -3 -2 -1 -0 -1 -1 -1 -2 -2 -0 0 -1 -1 1
5 1 4 8 10 9 12 -2 -1 4 5 -1 1 4 3 1 7 -1 -4 -1 -1 -3 -1 1 1 -0 0 -0 0 -3 -1 -2 -3 2 -5 4 10 -1 0 -1 -0 -0 -2 -1 -2 -1 -1 -1 0 -1 -0 1 1 0
-0 -3 -3 0 -1 0 7 6 6 -0 9 15 10 11 15 -0 1 -1 1 -1 -1 -2 -0 1 -0 -2 -1 -1 -2 1 -1 -3 -2 4 -2 3 10 2 0 -1 -1 -2 1 0 0 1 1 0 -1 -1 -0 -0 -0 0
1 1 -2 3 0 -0 -0 6 7 -0 -1 2 -2 -1 -0 0 -2 0 2 0 -0 1 -0 1 1 2 2 1 -2 -1 -2 -2 2 -1 -2 9 1 -3 -1 -2 0 0 1 0 1 0 -1 -1 1 2 1 -0 -1 1
-1 1 1 -3 4 -1 2 -0 9 3 2 -3 0 0 -3 -0 -2 -0 2 5 2 -2 -0 2 2 0 3 -0 -1 -0 -2 -2 -5 -0 6 -1 0 -0 2 1 0 0 1 2 2 2 2 2 2 1 0 -1 -1 -3
0 -1 6 3 5 4 1 3 22 -1 2 4 8 9 8 1 3 4 0 4 1 -0 -2 -2 -3 -2 -1 -4 -2 -1 -3 -5 2 5 -2 1 0 1 -0 -1 1 2 2 1 1 -0 -1 -2 1 -0 -1 -0 -1 -1
2 2 1 -1 -1 -2 -1 4 10 15 10 14 6 4 1 1 -2 -2 -1 -1 -1 -1 -0 0 1 -1 1 -5 5 1 -3 -0 1 -1 -2 -3 3 1 0 -0 -1 0 1 1 0 -1 -2 -2 -2 -2 -1 -0 1 0
4 0 1 3 2 -1 -1 -1 -3 -3 -2 3 2 0 1 2 -0 -0 1 -0 -1 -1 0 -3 -0 -0 1 -3 1 3 -0 -1 -1 0 1 3 2 0 -1 -1 0 -0 -0 -0 -1 -1 -1 -0 1 1 1 1 1 -1
-1 2 2 0 2 3 3 1 -2 -4 -1 2 2 1 -1 2 1 -0 1 0 1 1 -0 0 0 -1 -1 1 -1 1 -0 -0 -0 -1 -1 -3 1 0 -1 -0 -1 -1 -2 -3 -2 -1 0 1 -0 1 2 2 2 1
4 3 2 1 1 1 3 2 3 -3 -1 -0 -1 0 2 2 2 -1 -1 1 2 1 -0 1 -2 2 -0 -1 -1 0 -2 -2 -1 -1 -1 -1 -3 -3 -4 -4 -4 -1 -1 -0 1 -0 1 2 1 1 -0 1 1 0
3 4 4 2 1 1 5 3 4 3 1 -1 2 6 2 2 -0 -1 -0 -1 -3 -4 -5 -3 -2 0 2 3 2 1 0 -1 -1 -1 -1 -0 1 -1 -3 -2 -3 -3 -2 -0 -0 -1 -1 -1 -0 -1 -1 -2 -3 -3
4 3 6 6 4 3 1 4 3 3 3 0 -0 2 2 1 -0 0 3 2 0 -1 -2 -0 -2 -2 -2 -1 1 0 -0 1 0 1 -1 -3 -2 -2 -1 -0 -1 -1 -2 -0 0 -0 -0 0 -0 -1 -1 -2 -2 -3
-1 -2 -2 -0 -1 1 1 1 -0 1 5 -0 4 2 3 4 2 1 0 -0 -0 -0 0 0 0 1 1 0 -0 0 1 -0 -2 -1 1 0 -0 -1 1 1 1 1 -0 -0 -0 -1 -1 -0 -1 -1 -1 -0 -2 -4
0 1 1 1 -2 -0 -1 -2 -1 -2 -2 -3 -2 -2 -2 -1 -1 1 0 1 1 1 0 0 1 1 1 -0 -1 -1 -1 -0 -1 -1 -0 -1 0 1 1 1 0 0 -0 -1 0 -1 -1 -2 -1 -1 -1 -2 -2 -2
1 0 -1 -0 1 1 0 -1 -1 0 2 1 1 0 1 0 0 1 2 2 1 -0 -0 0 -0 -1 -1 -0 0 -0 -0 -1 -1 -0 -0 -0 -0 -1 -0 -0 -1 -1 -1 -2 -1 -1 1 0 -1 -1 -0 -3 -4 -4
-2 -0 -2 -2 -1 -4 -1 -1 -2 -1 0 -0 -1 -2 -1 -1 -2 -0 3 1 -0 -1 -1 -1 -1 -0 1 -0 0 -0 -0 -1 -1 -1 -1 -1 -0 0 -0 -0 -0 -1 1 0 1 -0 -1 -2 -2 -3 -3 -1 -1 -4
1 1 0 -0 -3 -1 0 -2 0 -0 -1 -0 1 0 -0 -2 -2 -2 5 -0 -0 -0 -0 0 2 1 0 1 1 -0 -1 -0 0 0 0 0 1 0 0 -0 1 4 2 1 -0 -1 -3 -3 -3 -2 -4 -3 -2 -1
-2 -2 -0 -1 -2 -1 -2 -1 -1 -1 -3 -2 -3 -1 -2 -2 -2 3 2 1 2 1 2 3 1 0 0 0 0 0 1 1 2 2 1 1 1 0 0 -1 -1 -1 -3 -2 -1 -1 -1 -1 -1 -1 -1 -2 -0 -1
-4 -3 -1 -5 -5 -3 -3 -3 -3 -2 -1 -3 -1 -1 1 0 0 2 2 2 0 0 1 1 2 4 4 4 4 4 3 2 1 -0 -0 -0 -0 -0 -1 -0 1 -2 -2 -1 -1 -1 1 1 1 -0 -1 -0 -1 -1
-3 -5 -3 -5 -4 -5 -6 -5 -4 -3 -1 -2 -3 -3 -2 0 3 4 6 2 1 6 3 3 2 1 0 -1 0 -0 0 -0 -1 0 -0 -1 1 1 -2 -2 -2 -1 -1 -3 -1 2 -1 -0 -0 -0 -0 -1 -1 -0
-2 -3 -3 -3 -3 -3 -1 -5 -2 -3 -2 -2 -3 -5 -5 -4 -2 -1 -2 0 3 3 4 3 2 1 1 1 1 0 -0 -1 -1 -0 -1 -1 -1 -1 -1 -3 -3 -2 -2 -1 -3 -3 -1 -1 1 2 1 1 1 0
-1 -1 -1 -1 -1 -1 -3 -3 -2 -2 -2 -3 -2 -2 -2 -1 0 -2 -3 -2 -2 -1 1 1 0 0 -1 -1 -0 -0 0 0 0 0 -1 -2 -2 -3 -3 -2 -1 -1 -1 -0 -0 -0 -1 -1 -1 -2 -2 -1 -1 -1
0 -0 -1 -1 -2 -2 -2 -1 -1 -2 -2 -2 -2 -2 -2 -2 -2 0 -2 -1 1 -0 -0 -0 -0 -1 -1 -0 -0 -1 -0 0 0 0 -0 -2 -2 -2 -1 -0 -0 -1 -0 0 -0 -0 -1 -1 -1 -1 -1 -1 -1 -1
-1 -2 -2 -2 -1 -2 -2 -2 -1 1 -0 -0 1 -0 -1 -2 -1 1 1 1 1 0 0 1 0 0 0 0 0 -0 -1 -1 -1 -1 -2 -3 -2 -2 -1 -2 -2 -2 -2 -1 -0 -1 -1 -1 -1 -0 -0 0 0 -0
Height
5325 5338 5355 5369 5388 5405 5422 5439 5459 5477 5493 5509 5525 5540 5554 5567 5579 5591 5601 5608 5617 5627 5637 5644 5652 5661 5671 5678 5685 5693 5697 5702 5705 5708 5710 5712 5713 5715 5715 5715 5715 5716 5716 5716 5715 5713 5712 5711 5710 5709 5707 5703 5700 5696
5349 5361 5377 5389 5404 5418 5438 5454 5470 5486 5501 5517 5531 5544 5555 5568 5580 5589 5598 5605 5615 5624 5634 5641 5649 5658 5666 5673 5682 5686 5692 5696 5699 5702 5705 5707 5708 5709 5710 5710 5710 5711 5710 5710 5710 5707 5704 5702 5700 5698 5696 5692 5688 5684
5370 5384 5399 5412 5425 5440 5454 5468 5483 5498 5511 5523 5535 5546 5558 5570 5580 5588 5595 5604 5614 5622 5630 5637 5645 5654 5662 5669 5675 5681 5686 5691 5694 5697 5699 5701 5702 5703 5704 5704 5704 5703 5703 5702 5700 5698 5695 5693 5690 5687 5684 5681 5677 5673
5401 5412 5422 5433 5445 5458 5470 5483 5495 5508 5519 5529 5538 5549 5561 5570 5579 5587 5594 5602 5612 5620 5627 5635 5642 5649 5657 5664 5670 5676 5681 5685 5688 5690 5692 5694 5696 5696 5697 5696 5697 5696 5695 5692 5691 5688 5685 5683 5680 5676 5672 5668 5665 5661
5424 5434 5443 5452 5462 5474 5485 5495 5505 5514 5523 5533 5543 5552 5561 5569 5578 5587 5593 5601 5608 5616 5623 5631 5638 5646 5653 5659 5665 5670 5675 5678 5681 5683 5685 5687 5687 5688 5688 5688 5688 5686 5685 5682 5680 5678 5675 5672 5668 5665 5661 5657 5653 5650
5443 5450 5458 5466 5475 5484 5494 5503 5512 5520 5528 5536 5545 5554 5562 5570 5578 5585 5593 5600 5607 5613 5621 5627 5634 5642 5648 5654 5660 5665 5668 5671 5674 5675 5677 5678 5679 5679 5678 5678 5678 5675 5672 5670 5668 5665 5662 5659 5656 5653 5650 5646 5642 5638
5461 5468 5475 5481 5488 5496 5502 5508 5516 5523 5532 5538 5545 5554 5562 5570 5578 5584 5594 5601 5606 5611 5619 5624 5631 5637 5643 5649 5654 5658 5661 5664 5666 5667 5668 5669 5669 5668 5667 5667 5666 5665 5661 5658 5656 5653 5650 5648 5645 5641 5638 5634 5629 5625
5472 5478 5483 5487 5492 5499 5506 5514 5521 5527 5535 5541 5549 5556 5563 5570 5578 5585 5591 5597 5603 5610 5614 5620 5626 5633 5638 5643 5647 5651 5653 5655 5657 5658 5660 5660 5659 5658 5657 5657 5655 5653 5651 5648 5645 5642 5639 5636 5632 5629 5625 5621 5617 5612
5480 5484 5490 5497 5503 5509 5514 5519 5525 5531 5537 5543 5549 5556 5564 5571 5577 5584 5591 5596 5600 5608 5612 5618 5624 5629 5633 5637 5640 5643 5645 5647 5649 5649 5650 5650 5649 5647 5648 5646 5644 5642 5640 5637 5634 5631 5628 5624 5621 5617 5613 5609 5604 5599
5489 5493 5498 5503 5509 5513 5519 5524 5528 5536 5541 5547 5553 5559 5565 5570 5578 5583 5589 5593 5598 5603 5610 5614 5619 5623 5628 5631 5634 5637 5637 5638 5638 5640 5639 5639 5638 5638 5638 5636 5634 5631 5628 5625 5622 5619 5616 5612 5608 5605 5601 5596 5591 5586
5493 5498 5503 5507 5512 5518 5524 5529 5534 5538 5542 5548 5556 5563 5567 5572 5578 5582 5586 5591 5595 5601 5605 5610 5614 5617 5620 5623 5625 5626 5627 5628 5628 5631 5630 5630 5630 5630 5628 5626 5623 5620 5616 5613 5610 5607 5603 5600 5597 5593 5588 5583 5578 5572
5496 5500 5505 5510 5515 5521 5527 5531 5537 5541 5546 5552 5558 5562 5567 5570 5575 5580 5584 5588 5592 5598 5602 5606 5609 5611 5613 5615 5616 5618 5618 5619 5619 5621 5621 5620 5621 5619 5617 5613 5610 5607 5605 5602 5599 5596 5592 5588 5584 5579 5574 5568 5563 5557
5497 5501 5505 5510 5516 5521 5525 5531 5538 5543 5548 5552 5556 5561 5564 5569 5572 5577 5582 5588 5592 5595 5598 5600 5603 5605 5607 5608 5609 5611 5610 5610 5611 5609 5609 5611 5609 5605 5602 5600 5598 5596 5593 5591 5587 5584 5580 5575 5571 5565 5560 5553 5547 5540
5498 5501 5505 5509 5515 5520 5525 5530 5537 5542 5547 5552 5556 5559 5562 5566 5572 5576 5580 5583 5586 5589 5592 5595 5597 5599 5600 5601 5601 5601 5600 5600 5599 5600 5600 5598 5595 5593 5591 5589 5587 5585 5581 5578 5574 5570 5566 5561 5555 5549 5542 5536 5529 5523
5498 5501 5505 5509 5514 5519 5525 5530 5536 5542 5545 5548 5553 5556 5559 5564 5568 5571 5575 5578 5581 5583 5586 5588 5589 5590 5591 5590 5591 5590 5589 5589 5589 5589 5586 5584 5583 5581 5579 5577 5574 5571 5567 5563 5559 5554 5549 5544 5538 5532 5526 5520 5514 5507
5498 5502 5505 5509 5514 5519 5523 5528 5533 5537 5542 5545 5549 5553 5556 5560 5563 5566 5568 5572 5574 5576 5578 5579 5579 5579 5579 5579 5579 5579 5579 5579 5579 5577 5575 5573 5571 5569 5566 5564 5560 5556 5552 5548 5543 5538 5532 5527 5522 5516 5510 5504 5499 5493
5497 5500 5504 5508 5512 5516 5520 5525 5528 5531 5534 5538 5543 5547 5551 5553 5556 5559 5561 5563 5564 5566 5567 5567 5568 5569 5569 5569 5569 5570 5570 5569 5567 5565 5563 5561 5559 5555 5552 5548 5544 5541 5537 5533 5528 5523 5518 5512 5507 5502 5496 5491 5486 5480
5494 5498 5501 5506 5510 5514 5518 5521 5524 5526 5530 5534 5537 5540 5544 5546 5549 5552 5553 5555 5557 5557 5558 5559 5560 5560 5560 5560 5560 5559 5558 5557 5555 5553 5551 5548 5545 5542 5538 5535 5532 5529 5524 5519 5514 5509 5504 5499 5493 5488 5484 5479 5473 5467
5491 5495 5498 5502 5507 5511 5514 5517 5520 5521 5524 5527 5529 5532 5535 5538 5540 5543 5545 5547 5548 5549 5549 5550 5550 5550 5550 5549 5548 5547 5546 5544 5543 5540 5538 5535 5532 5529 5525 5522 5518 5514 5509 5504 5499 5494 5489 5484 5479 5475 5470 5465 5460 5454
5486 5490 5494 5498 5503 5506 5509 5513 5515 5517 5518 5522 5524 5526 5528 5531 5533 5535 5536 5536 5537 5537 5538 5538 5538 5539 5539 5538 5537 5535 5533 5531 5529 5528 5526 5523 5521 5517 5513 5509 5504 5500 5495 5490 5485 5480 5475 5471 5466 5461 5455 5450 5444 5438
5481 5484 5488 5492 5495 5499 5502 5505 5508 5511 5513 5515 5517 5519 5521 5522 5523 5524 5525 5525 5526 5526 5526 5526 5526 5525 5525 5525 5524 5523 5522 5520 5519 5517 5514 5511 5508 5504 5499 5494 5490 5485 5480 5476 5471 5467 5462 5457 5452 5447 5441 5434 5426 5419
5479 5480 5482 5484 5487 5489 5493 5495 5499 5502 5505 5505 5507 5509 5510 5511 5512 5513 5513 5514 5514 5515 5516 5516 5516 5516 5515 5514 5513 5512 5511 5509 5507 5504 5501 5497 5493 5488 5484 5479 5475 5471 5467 5463 5458 5454 5449 5444 5438 5431 5424 5417 5409 5400
5479 5480 5482 5483 5485 5487 5490 5491 5493 5494 5496 5498 5499 5501 5502 5503 5504 5505 5506 5506 5506 5506 5506 5506 5506 5505 5504 5503 5501 5499 5497 5494 5491 5488 5484 5480 5476 5473 5469 5465 5462 5458 5454 5449 5445 5440 5434 5428 5422 5415 5407 5399 5391 5382
5477 5478 5480 5481 5482 5484 5486 5487 5489 5490 5491 5492 5494 5495 5496 5496 5497 5497 5497 5497 5497 5497 5496 5495 5495 5493 5491 5489 5487 5485 5482 5479 5476 5472 5469 5466 5462 5459 5456 5452 5448 5444 5440 5435 5430 5424 5418 5412 5405 5398 5390 5381 5371 5362
5473 5475 5476 5477 5478 5480 5481 5482 5483 5484 5484 5485 5486 5486 5487 5487 5487 5487 5487 5487 5486 5485 5484 5483 5481 5479 5477 5475 5472 5469 5466 5464 5461 5458 5455 5453 5450 5447 5443 5440 5435 5431 5426 5421 5415 5408 5402 5395 5388 5380 5372 5363 5353 5344
5465 5466 5468 5469 5470 5471 5472 5472 5473 5474 5474 5475 5475 5475 5475 5475 5475 5475 5475 5473 5472 5470 5469 5467 5465 5463 5461 5459 5457 5455 5453 5451 5449 5446 5444 5441 5437 5434 5430 5426 5422 5417 5411 5406 5399 5392 5385 5377 5369 5361 5353 5345 5337 5328
5457 5458 5458 5459 5459 5460 5460 5461 5461 5461 5461 5461 5461 5461 5460 5460 5460 5460 5458 5456 5455 5454 5452 5451 5450 5449 5447 5446 5445 5443 5441 5439 5437 5434 5431 5428 5424 5420 5416 5411 5406 5401 5395 5389 5383 5375 5367 5359 5352 5344 5336 5329 5321 5314
5446 5447 5447 5447 5447 5447 5447 5447 5447 5446 5445 5444 5443 5442 5442 5442 5442 5441 5440 5440 5440 5440 5439 5439 5439 5438 5437 5436 5434 5432 5430 5427 5424 5421 5418 5414 5410 5405 5400 5395 5390 5383 5377 5371 5364 5357 5350 5342 5335 5328 5321 5314 5307 5300
5435 5435 5435 5435 5434 5433 5433 5433 5432 5431 5431 5430 5428 5427 5427 5426 5427 5428 5430 5430 5431 5431 5431 5431 5430 5428 5427 5425 5423 5420 5417 5414 5411 5407 5403 5399 5394 5390 5384 5378 5373 5366 5359 5352 5346 5339 5332 5326 5319 5313 5306 5300 5294 5288
5431 5431 5431 5431 5431 5430 5430 5430 5429 5429 5428 5427 5426 5424 5422 5421 5422 5422 5423 5423 5423 5423 5422 5421 5419 5418 5415 5413 5410 5407 5404 5400 5396 5392 5387 5383 5378 5373 5367 5361 5354 5347 5340 5333 5327 5321 5315 5310 5304 5298 5293 5287 5282 5277
5429 5429 5429 5428 5428 5428 5427 5427 5426 5425 5425 5423 5422 5421 5420 5419 5418 5418 5418 5417 5416 5414 5413 5411 5408 5406 5403 5400 5397 5393 5389 5385 5381 5376 5371 5366 5361 5355 5348 5341 5335 5329 5323 5317 5310 5304 5298 5293 5288 5283 5279 5274 5269 5265
5426 5425 5425 5425 5424 5424 5423 5422 5421 5421 5419 5418 5417 5416 5414 5413 5412 5411 5410 5408 5406 5404 5402 5399 5396 5393 5389 5385 5382 5378 5374 5370 5365 5360 5354 5348 5342 5335 5328 5322 5316 5310 5305 5299 5293 5288 5283 5278 5274 5269 5265 5261 5257 5253
5421 5420 5420 5419 5418 5417 5416 5416 5414 5413 5412 5410 5409 5407 5405 5404 5403 5401 5399 5397 5394 5391 5389 5385 5382 5378 5375 5371 5367 5363 5358 5353 5347 5341 5335 5328 5322 5315 5309 5303 5297 5291 5286 5281 5277 5272 5268 5264 5260 5256 5252 5248 5244 5241